FW1946 Weather Reports


Display with metric or nautical units.
time (UTC)temp
F
wind
direction
speed
MPH
gust
MPH
rain 1hr
in
rain 24hr
in
rain mn
in
humidity
%
barometer
mb
20210620120036 56 321 0.0 0.0 0.00 0.00 0.00 87 1014.9
20210620114604 57 337 0.0 0.0 0.00 0.00 0.00 87 1014.6
20210620113038 56 324 0.0 0.0 0.00 0.00 0.00 87 1014.6
20210620111538 58 337 0.0 0.0 0.00 0.00 0.00 84 1014.3
20210620110037 59 337 0.0 0.0 0.00 0.00 0.00 83 1014.3
20210620104541 59 302 0.0 0.0 0.00 0.00 0.00 81 1014.3
20210620103033 61 293 0.0 0.0 0.00 0.00 0.00 76 1014.3
20210620101538 64 337 0.0 0.0 0.00 0.00 0.00 73 1013.9
20210620100041 65 334 3.0 0.0 0.00 0.00 0.00 73 1013.9
20210620094538 62 310 3.0 0.0 0.00 0.00 0.00 80 1013.9
20210620093110 60 193 0.0 0.0 0.00 0.00 0.00 81 1013.9
20210620090036 60 215 0.0 0.0 0.00 0.00 0.00 82 1013.9
20210620084537 59 261 0.0 0.0 0.00 0.00 0.00 82 1013.6
20210620083040 59 205 0.0 0.0 0.00 0.00 0.00 80 1013.9
20210620081533 60 157 0.0 0.0 0.00 0.00 0.00 80 1013.9
20210620080039 60 170 0.0 0.0 0.00 0.00 0.00 79 1013.6
20210620074539 60 247 0.0 0.0 0.00 0.00 0.00 78 1013.6
20210620073118 61 247 0.0 0.0 0.00 0.00 0.00 76 1013.6
20210620071534 61 247 0.0 0.0 0.00 0.00 0.00 75 1013.6
20210620070043 61 247 0.0 0.0 0.00 0.00 0.00 74 1013.6
20210620064535 62 247 0.0 0.0 0.00 0.00 0.00 72 1013.6
20210620063116 63 247 0.0 0.0 0.00 0.00 0.00 71 1013.6
20210620061611 64 225 0.0 0.0 0.00 0.00 0.00 67 1013.6
20210620054610 67 224 0.0 0.0 0.00 0.00 0.00 62 1013.6
20210620051538 67 224 0.0 0.0 0.00 0.00 0.00 62 1013.6
20210620050040 68 214 0.0 0.0 0.00 0.00 0.00 60 1013.2
20210620044537 69 205 0.0 0.0 0.00 0.00 0.00 59 1013.2
20210620043038 70 242 0.0 0.0 0.00 0.00 0.00 56 1013.2
20210620041538 72 244 0.0 0.0 0.00 0.00 0.00 53 1012.9
20210620040124 73 234 1.0 0.0 0.00 0.00 0.00 52 1012.9
20210620034619 73 223 1.0 0.0 0.00 0.00 0.00 51 1012.9
20210620033120 74 238 1.0 0.0 0.00 0.00 0.00 51 1012.9
20210620031538 74 200 1.0 0.0 0.00 0.00 0.00 50 1012.9
20210620030119 75 249 1.0 0.0 0.00 0.00 0.00 48 1012.9
20210620024536 76 252 1.0 0.0 0.00 0.00 0.00 46 1012.9
20210620023037 77 253 1.0 0.0 0.00 0.00 0.00 45 1012.5
20210620021537 77 265 2.0 0.0 0.00 0.00 0.00 45 1012.5
20210620020049 78 259 2.0 0.0 0.00 0.00 0.00 45 1012.5
20210620014536 79 264 2.0 0.0 0.00 0.00 0.00 45 1012.9
20210620013039 79 282 1.0 0.0 0.00 0.00 0.00 45 1012.9
20210620011536 79 221 1.0 0.0 0.00 0.00 0.00 45 1012.9
20210620010038 80 230 2.0 0.0 0.00 0.00 0.00 45 1012.9
20210620004541 80 246 1.0 0.0 0.00 0.00 0.00 45 1012.9
20210620003035 80 241 2.0 0.0 0.00 0.00 0.00 45 1012.9
20210620001538 81 247 3.0 0.0 0.00 0.00 0.00 44 1012.9
20210620000039 81 250 3.0 0.0 0.00 0.00 0.00 44 1012.9
20210619234555 80 251 2.0 0.0 0.00 0.00 0.00 45 1013.2
20210619233035 80 252 3.0 0.0 0.00 0.00 0.00 45 1013.2
20210619231539 80 246 2.0 0.0 0.00 0.00 0.00 45 1013.2
20210619230037 80 240 3.0 0.0 0.00 0.00 0.00 44 1013.2
20210619224545 80 234 3.0 0.0 0.00 0.00 0.00 43 1013.6
20210619223037 80 253 2.0 0.0 0.00 0.00 0.00 43 1013.9
20210619221538 79 236 2.0 0.0 0.00 0.00 0.00 44 1013.6
20210619220043 80 251 3.0 0.0 0.00 0.00 0.00 41 1013.9
20210619214649 80 269 3.0 0.0 0.00 0.00 0.00 41 1014.3
20210619210044 79 262 2.0 0.0 0.00 0.00 0.00 43 1014.3
20210619203047 79 271 2.0 0.0 0.00 0.00 0.00 45 1014.6
20210619201535 77 267 2.0 0.0 0.00 0.00 0.00 45 1014.6
20210619200051 78 277 2.0 0.0 0.00 0.00 0.00 44 1014.9
20210619194540 77 287 1.0 0.0 0.00 0.00 0.00 45 1014.9
20210619193038 76 201 2.0 0.0 0.00 0.00 0.00 47 1015.6
20210619190038 73 344 1.0 0.0 0.00 0.00 0.00 52 1015.6
20210619184539 70 327 1.0 0.0 0.00 0.00 0.00 53 1015.6
20210619183039 70 297 1.0 0.0 0.00 0.00 0.00 52 1015.6
20210619181541 71 306 2.0 0.0 0.00 0.00 0.00 50 1016.0
20210619180046 73 302 2.0 0.0 0.00 0.00 0.00 49 1016.0
20210619174535 73 99 1.0 0.0 0.00 0.00 0.00 52 1016.0
20210619173036 71 327 2.0 0.0 0.00 0.00 0.00 52 1016.0
20210619171541 70 311 2.0 0.0 0.00 0.00 0.00 57 1016.3
20210619170044 68 341 3.0 0.0 0.00 0.00 0.00 57 1016.3
20210619164532 69 318 3.0 0.0 0.00 0.00 0.00 55 1016.7
20210619163038 68 306 3.0 0.0 0.00 0.00 0.00 58 1016.7
20210619161538 67 320 3.0 0.0 0.00 0.00 0.00 58 1016.7
20210619160039 67 317 3.0 0.0 0.00 0.00 0.00 59 1016.7
20210619154539 67 343 2.0 0.0 0.00 0.00 0.00 61 1017.0
20210619153038 65 45 0.0 0.0 0.00 0.00 0.00 63 1017.0
20210619151535 63 64 0.0 0.0 0.00 0.00 0.00 65 1017.0
20210619150041 63 347 3.0 0.0 0.00 0.00 0.00 65 1017.4
20210619144533 62 332 1.0 0.0 0.00 0.00 0.00 67 1017.4
20210619143112 61 320 2.0 0.0 0.00 0.00 0.00 68 1017.4
20210619141533 61 325 4.0 0.0 0.00 0.00 0.00 67 1017.0
20210619140122 60 308 1.0 0.0 0.00 0.00 0.00 70 1017.0
20210619134537 57 283 1.0 0.0 0.00 0.00 0.00 77 1017.0
20210619133045 55 288 0.0 0.0 0.00 0.00 0.00 79 1017.0
20210619131537 55 75 0.0 0.0 0.00 0.00 0.00 77 1017.0
20210619130042 56 9 0.0 0.0 0.00 0.00 0.00 76 1016.7
20210619124537 56 321 1.0 0.0 0.00 0.00 0.00 75 1016.7
20210619123038 56 316 2.0 0.0 0.00 0.00 0.00 74 1016.7
20210619121535 57 334 2.0 0.0 0.00 0.00 0.00 72 1016.7